This is the latest recevied weather packets stored in our database for station/object N6ZHV-13. If no packets are shown the sender has not sent any weather packets the latest 10 day(s).
| Time | Temp. | Humidity | Pressure | Rain* | Wind** | Luminosity | Snow |
|---|---|---|---|---|---|---|---|
| 1777922993 | 17.78° C | 55% | 1017 hPa | 0 mm | - | - | - |
| 1777922693 | 17.22° C | 55% | 1017 hPa | 0 mm | - | - | - |
| 1777922393 | 17.78° C | 54% | 1018 hPa | 0 mm | - | - | - |
| 1777922093 | 17.22° C | 54% | 1018.3 hPa | 0 mm | - | - | - |
| 1777921793 | 17.78° C | 56% | 1016.9 hPa | 0 mm | - | - | - |
| 1777921493 | 17.78° C | 57% | 1018.1 hPa | 0 mm | - | - | - |
| 1777921193 | 17.78° C | 58% | 1018.5 hPa | 0 mm | - | - | - |
| 1777920893 | 17.22° C | 57% | 1018.5 hPa | 0 mm | - | - | - |
| 1777920593 | 17.22° C | 57% | 1017 hPa | 0 mm | - | - | - |
| 1777920293 | 17.22° C | 57% | 1017.1 hPa | 0 mm | - | - | - |
| 1777919993 | 16.67° C | 57% | 1018.3 hPa | 0 mm | - | - | - |
| 1777919693 | 17.22° C | 57% | 1018.2 hPa | 0 mm | - | - | - |
| 1777919393 | 17.22° C | 61% | 1018.1 hPa | 0 mm | - | - | - |
| 1777919093 | 16.67° C | 59% | 1018.3 hPa | 0 mm | - | - | - |
| 1777918793 | 17.22° C | 59% | 1018.3 hPa | 0 mm | - | - | - |
| 1777918493 | 17.22° C | 59% | 1018.5 hPa | 0 mm | - | - | - |
| 1777918193 | 16.67° C | 61% | 1018.6 hPa | 0 mm | - | - | - |
| 1777917893 | 16.67° C | 60% | 1018.6 hPa | 0 mm | - | - | - |
| 1777917593 | 16.67° C | 62% | 1018.5 hPa | 0 mm | - | - | - |
| 1777917293 | 16.67° C | 63% | 1018.5 hPa | 0 mm | - | - | - |
| 1777916993 | 16.67° C | 62% | 1018.3 hPa | 0 mm | - | - | - |
| 1777916693 | 16.67° C | 65% | 1018.1 hPa | 0 mm | - | - | - |
| 1777916393 | 16.11° C | 65% | 1018.1 hPa | 0 mm | - | - | - |
| 1777916093 | 16.11° C | 68% | 1018.1 hPa | 0 mm | - | - | - |
| 1777915793 | 15.56° C | 70% | 1017.1 hPa | 0 mm | - | - | - |
* Rain latest hour (hover to see other rain measurements)
** Current wind speed in m/s (hover to see current wind gust speed)